Dean International
Flight School

Career Spotlight

Mika

Mika

Congratulations to Mika from Khazakstan. She recently sent us this photo of her flying an Airbus airliner.

More...
Mika's Success Story
close

Congratulations to Mika from Khazakstan. She recently sent us this photo of her flying an Airbus airliner.

Mario

Mario

My dreams could not have been realized if I wouldn't have been part of the Dean International family.

More...
Mario's Success Story
close

"My dreams could not have been realized if I wouldn't have been part of the Dean International family. Thank you Robert, thanks to all my co-workers, and thanks to all of my students!"

Fernando

Fernando

I am now working as a First Officer at TACA and am enjoying every moment of it.

More...
Fernando's Success Story
close

"Will never forget my time of flight training at Dean International. I am now working as a First Officer at TACA and am enjoying every moment of it."

Alvaro

Alvaro

Because of the flight time I was able to built while instructing, I got the experience needed to apply to an airline in Colombia.

More...
Alvaro's Success Story
close

Dean alumnus Alvaro Londoño currently flies with Tampa Cargo. He says of his experience at Dean: "I want to take this opportunity to thank you for giving me the chance to build my experience and expand my knowledge in Dean International. Because of the flight time I was able to built flight instructing, I got the experience needed to apply to an airline in Colombia."

Ralph

Ralph

Every Aruban student of Dean International has made it into Tiara Air Aruba, that is very nice.

More...
Ralph's Success Story
close

"Next to me is my Co-Pilot, Elison. This picture was taken on our first flight together, which was almost exactly 5 years after I finished at Dean International. [...] Every Aruban student of Dean International has made it into Tiara Air Aruba. [...] The future looks bright here in Aruba."

Rohaan

Rohaan

The [..] staff will all work diligently to help you finish your certificates as safely and efficiently as possible.

More...
Rohaan's Success Story
close

After receiving very hard times from other flight schools [...], I came to Dean International where Robert Dean personally sat down with me and gave me a financial and chronological look into how much remained to finish my private pilot certificate. Through his hard efforts as an instructor and mentor, I was able to finish my private pilot certificate within one week.

Welcome to Dean International

In over two decades, Dean International has educated over 7,000 pilots from all over the world, including over 1,000 students from India alone. By offering a great training experience, a friendly service staff, an ample variety of aircraft, and by improving constantly, we have become one of the largest, most prestigious FAA 141-approved flight schools in North America. Located in Miami, Florida, USA, our flight school offers an ideal location for year-round, "learn to fly" weather, flight training. Dean International is not only well-equipped to provide services to professional trainees but also caters to General Aviation renters. Visit or contact our headquarters at Kendall-Tamiami Executive Airport located in Miami, FL today to learn more about us, or simply read more about our programs if you are an international student interested in joining our school.

Local Airport Information
TAF FOR KTMB (Issued: Tue, October 21st 2014 9:57 AM UTC)
TAF
      AMD KTMB 210855Z 2109/2206 VRB04KT P6SM VCSH SCT030 BKN045
      FM211500 19005KT P6SM VCSH SCT025 BKN250
      FM211900 21005KT P6SM SHRA SCT025 BKN035 PROB30 2119/2124 TSRA BKN035CB
      FM220000 VRB03KT P6SM VCSH SCT025 BKN040
     
METAR FOR KTMB (Issued: Tue, October 21st 2014 9:53 AM UTC):
KTMB 210953Z AUTO 16003KT 10SM CLR 24/22 A2993 RMK AO2 SLP134 T02390222

This weather information is provided by the National Weather Service.
It is automatically refreshed every three minutes.
TAF FOR KHST (Issued: Tue, October 21st 2014 9:58 AM UTC)
TAF
      AMD KHST 2109/2214 15009KT 9999 VCTS SCT030 BKN050CB QNH2990INS
      TEMPO 2109/2111 8000 -TSRA SCT020 BKN030CB
      BECMG 2111/2112 18009KT 9000 -SHRA BKN020 OVC050 QNH2990INS
      TEMPO 2116/2121 4800 -TSRA OVC020CB
      BECMG 2122/2123 04006KT 9999 NSW SCT025 BKN060 QNH2991INS TX28/2115Z TN22/2110Z
      AMD 210949
     
METAR FOR KHST (Issued: Tue, October 21st 2014 9:58 AM UTC):
KHST 210958Z AUTO 24003KT 10SM CLR 23/22 A2993 RMK AO2 RAB0918E0929 CIG 080 RWY23 SLP138 P0000 T02270220

This weather information is provided by the National Weather Service.
It is automatically refreshed every three minutes.
TAF FOR KOPF (Issued: Tue, October 21st 2014 9:57 AM UTC)
TAF
      AMD KOPF 210855Z 2109/2206 VRB02KT P6SM VCSH SCT060 BKN100
      FM211400 17005KT P6SM VCSH SCT025 BKN250
      FM211800 20006KT P6SM SHRA SCT025 BKN035 PROB30 2119/2124 TSRA BKN035CB
      FM220100 VRB03KT P6SM VCSH SCT025 BKN040
     
METAR FOR KOPF (Issued: Tue, October 21st 2014 9:53 AM UTC):
KOPF 210953Z AUTO 20007KT 10SM BKN100 24/22 A2993 RMK AO2 SLP136 T02440222

This weather information is provided by the National Weather Service.
It is automatically refreshed every three minutes.
TAF FOR KMIA (Issued: Tue, October 21st 2014 9:57 AM UTC)
TAF
      AMD KMIA 210855Z 2109/2206 VRB03KT P6SM VCSH SCT050 BKN100
      FM211500 17006KT P6SM VCSH SCT025 BKN250
      FM211900 20006KT P6SM SHRA SCT025 BKN035 PROB30 2119/2124 TSRA BKN035CB
      FM220000 VRB03KT P6SM VCSH SCT025 BKN040
     
METAR FOR KMIA (Issued: Tue, October 21st 2014 9:53 AM UTC):
KMIA 210953Z 15004KT 10SM FEW014 SCT030 BKN120 OVC200 24/22 A2993 RMK AO2 RAB00E09 SLP136 P0000 T02390217

This weather information is provided by the National Weather Service.
It is automatically refreshed every three minutes.
Design by Ariel Llizo
© Dean International Inc. 2012